HYLAS 1

Last updated on Thu Oct 30 2025 00:02:48 GMT+0000 (Coordinated Universal Time)

1 37237U 10065A 25302.46055889 -.00000221 00000+0 00000+0 0 9995 2 37237 5.0542 75.8446 0001139 186.4984 222.5214 1.00270387 4570
UTC large
Height (km)
Speed (km/s)
/
Latitude / Longitude
Inclination (degrees)
Orbital Period (minutes)
Azimuth
Elevation
Range (km)
Doppler Factor

Next 0 passes for location: London (51.5072 / 0.1276)

Sorry there are no passes over London.